Location: Bh?mavarapp?du
(16.7041°N, 80.6518°E)
Time: 07:03:53
(UTC+00:00)

Cosmos 1048 Rocket - Pass Details

Date: 21 April 2021
Orbit: 742 x 792 km, 74.0° (Epoch: 05 May)

Event Time Altitude Azimuth Distance (km) Brightness Sun altitude
Rises 23:01:04 0° 344° (NNW) 3,271 7.3 -18.4°
Reaches altitude 10° 23:03:28 10° 343° (NNW) 2,336 6.5 -17.9°
Maximum altitude 23:08:47 77° 258° (WSW) 796 3.9 -16.7°
Drops below altitude 10° 23:14:00 10° 172° (S) 2,301 6.4 -15.5°
Sets 23:16:21 0° 170° (S) 3,218 7.1 -15.0°
